{"data":{"norad_id":64780,"epoch":"2026-05-24T18:37:39.320256Z","epoch_age_seconds":94255,"freshness":"FRESH","line1":"1 64780U 25147AB  26144.77614954  .00025377  00000+0  75955-3 0  9991","line2":"2 64780  53.1584 248.4294 0000820  75.4418 284.6676 15.34404924 50410","mean_motion":15.34404924,"eccentricity":8.2e-5,"inclination_deg":53.1584,"raan_deg":248.4294,"arg_perigee_deg":75.4418,"mean_anomaly_deg":284.6676,"bstar":0.00075955,"rev_number":5041,"period_min":93.847456918093,"perigee_km":462.12765738094,"apogee_km":463.24955278017,"semimajor_km":6840.8256050806,"source":"CELESTRAK","updated_at":"2026-05-25T13:38:20.560747Z"}}